Location: Walnut Hills Mobile Home Park
(34.0445°N, 117.8184°W)
Time: 02:37:44
(UTC+00:00)

IRIDIUM 106 - Pass Details

Date: 17 December 2025
Orbit: 776 x 779 km, 86.4° (Epoch: 15 January)

Event Time Altitude Azimuth Distance (km) Brightness Sun altitude
Rises 13:25:06 0° 191° (S) 3,246 7.6 -17.2°
Reaches altitude 10° 13:27:29 10° 195° (SSW) 2,322 6.8 -16.8°
Maximum altitude 13:32:35 57° 274° (W) 918 4.4 -15.8°
Drops below altitude 10° 13:37:43 10° 353° (N) 2,335 6.6 -14.8°
Sets 13:40:07 0° 357° (N) 3,266 7.3 -14.3°
